HST 1 20580U 90037B 26237.62528960 .00006029 00000+0 18532-3 0 9990 2 20580 28.4736 325.7338 0001866 182.2613 177.7975 15.31455744799223 POLAR 1 23802U 96013A 26236.58861650 .00000242 00000+0 00000+0 0 9998 2 23802 79.9542 226.2325 6540066 206.7339 94.5602 1.29845824145742 SWAS 1 25560U 98071A 26237.91246664 .00002669 00000+0 17038-3 0 9995 2 25560 69.8950 47.6588 0004858 177.4829 182.6360 15.09978886507793 CXO 1 25867U 99040B 26240.77966956 .00001030 00000+0 00000+0 0 9991 2 25867 57.1441 114.7944 7726724 309.5210 0.7071 0.37801396 17591 XMM-NEWTON 1 25989U 99066A 26239.15795894 .00000172 00000+0 00000+0 0 9991 2 25989 64.1136 282.0687 4655809 63.6237 0.0762 0.50123629 23360 TERRA 1 25994U 99068A 26237.87787104 .00000296 00000+0 69194-4 0 9992 2 25994 97.9403 284.6419 0002834 40.1634 70.8131 14.61149167419781 CLUSTER II-FM7 (SAMBA) 1 26410U 00041A 26228.35648488 .00204628 -13535-2 00000+0 0 9995 2 26410 149.5559 61.8704 9119992 279.7536 359.6603 0.44877167 20578 CLUSTER II-FM8 (TANGO) 1 26464U 00045B 26235.95061241 .00282324 -17355-2 00000+0 0 9991 2 26464 149.6206 64.3903 9130551 282.2349 2.0020 0.44543825 20619 TIMED 1 26998U 01055B 26237.31871062 .00000896 00000+0 84663-4 0 9996 2 26998 74.0661 95.8112 0002301 256.3100 103.7828 14.95420825341152 CORIOLIS 1 27640U 03001A 26237.95710124 .00000093 00000+0 64396-4 0 9995 2 27640 98.7161 243.7860 0014326 16.8324 343.3325 14.19961645224123 SORCE 1 27651U 03004A 26237.93293387 .00002450 00000+0 18440-3 0 9992 2 27651 39.9893 223.6488 0017814 196.8694 163.1509 15.04022484282402 MOST 1 27843U 03031D 26237.48139967 .00000056 00000+0 45676-4 0 9990 2 27843 98.7077 244.2482 0010817 56.3142 303.9065 14.21334474200559 SCISAT 1 1 27858U 03036A 26237.84696007 .00000563 00000+0 76365-4 0 9996 2 27858 73.9302 32.9258 0006093 78.5293 281.6567 14.81518609241765 SWIFT 1 28485U 04047A 26237.67497899 .00076981 00000+0 46425-3 0 9995 2 28485 20.5526 6.0110 0001271 148.6553 211.3970 15.75892678197817 HINODE (SOLAR-B) 1 29479U 06041A 26236.51981330 .00000548 00000+0 10238-3 0 9994 2 29479 98.0556 251.6688 0018845 72.8108 287.5159 14.68700207 64905 SHIJIAN-6 02A (SJ-6 02A) 1 29505U 06046A 26237.93064017 .00005501 00000+0 27690-3 0 9994 2 29505 97.6323 279.5356 0001376 241.3740 118.7355 15.17626718 82844 SHIJIAN-6 02B (SJ-6 02B) 1 29506U 06046B 26237.92290789 -.00000038 00000+0 17551-5 0 9999 2 29506 97.7064 266.5278 0015191 184.9553 175.1524 15.01471089 81207 FGRST (GLAST) 1 33053U 08029A 26237.89026359 .00003108 00000+0 11023-3 0 9996 2 33053 25.5823 80.3787 0008571 70.3404 289.8059 15.24254881 6336 SDO 1 36395U 10005A 26237.09740784 -.00000075 00000+0 00000+0 0 9992 2 36395 34.7906 85.2937 0001521 71.4543 109.9399 1.00276200 60750 CRYOSAT 2 1 36508U 10013A 26237.89763536 .00000144 00000+0 35031-4 0 9998 2 36508 92.0313 294.2397 0002691 87.4219 272.7296 14.51900494868191 X-SAT 1 37389U 11015C 26237.93910534 -.00000135 00000+0 -39839-4 0 9998 2 37389 98.3582 211.6639 0014773 134.2652 225.9743 14.25222921797612 GCOM-W1 (SHIZUKU) 1 38337U 12025A 26237.39868679 .00000356 00000+0 89118-4 0 9994 2 38337 98.2043 176.9111 0001353 89.6025 22.3840 14.57119705759112 NUSTAR 1 38358U 12031A 26238.00001157 .00007598 00000+0 40886-3 0 9996 2 38358 6.0249 230.2399 0006889 64.0002 178.1454 15.09379986 1302 NEOSSAT 1 39089U 13009D 26237.47739375 .00000108 00000+0 51986-4 0 9998 2 39089 98.4216 55.8797 0011838 44.6497 315.5641 14.35847239706685 BRITE-AUSTRIA 1 39091U 13009F 26237.92902627 .00000140 00000+0 62166-4 0 9991 2 39091 98.4036 55.6572 0010887 37.6539 322.5408 14.36565703707065 IRIS 1 39197U 13033A 26237.52342395 .00000839 00000+0 10178-3 0 9991 2 39197 97.9300 76.5814 0025837 91.8741 268.5433 14.86005071710679 HISAKI (SPRINT-A) 1 39253U 13049A 26237.06361135 .00000102 00000+0 47171-4 0 9990 2 39253 29.7189 229.8371 0136687 215.1775 143.9708 13.55549209640770 CASSIOPE 1 39265U 13055A 26237.85754085 .00050139 -18884-6 51834-3 0 9999 2 39265 80.9164 341.7942 0275326 186.4947 173.2700 15.29722027678300 STSAT-3 1 39422U 13066G 26237.95355604 .00002225 00000+0 16932-3 0 9997 2 39422 97.6260 206.7488 0010329 148.0452 212.1402 15.03080598694680 SWARM B 1 39451U 13067A 26237.91242807 .00002953 00000+0 10384-3 0 9999 2 39451 87.7473 321.1474 0003212 101.0885 259.0726 15.28942800693898 SWARM A 1 39452U 13067B 26237.91363161 .00009593 00000+0 16812-3 0 9996 2 39452 87.3317 30.3254 0002408 87.2570 272.8966 15.50405822717056 SWARM C 1 39453U 13067C 26237.84899606 .00009531 00000+0 16704-3 0 9999 2 39453 87.3320 28.9314 0002399 88.7119 271.4416 15.50405849717004 BRITE-CA1 (TORONTO) 1 40020U 14033L 26237.61058189 .00000638 00000+0 10300-3 0 9998 2 40020 97.9823 5.2934 0079559 55.3063 305.5607 14.72791033652439 OCO 2 1 40059U 14035A 26237.92281246 .00000319 00000+0 80802-4 0 9999 2 40059 98.2041 178.1632 0001619 90.1254 270.0130 14.57086278646209 BRITE-PL2 (HEWELIUSZ) 1 40119U 14049B 26237.92813727 .00001983 00000+0 18752-3 0 9998 2 40119 97.9147 350.4949 0012735 234.2603 125.7433 14.94800951651868 MMS 1 1 40482U 15011A 26238.00001157 -.00002126 00000+0 00000+0 0 9991 2 40482 72.9068 347.9468 8278226 168.8636 220.3830 0.28349150 1388 MMS 2 1 40483U 15011B 26238.00001157 -.00002128 00000+0 00000+0 0 9994 2 40483 72.9127 347.9458 8281080 168.8645 220.3713 0.28348069 1384 MMS 3 1 40484U 15011C 26238.00001157 -.00002127 00000+0 00000+0 0 9994 2 40484 72.9105 347.9577 8279425 168.8737 220.3382 0.28349125 1381 MMS 4 1 40485U 15011D 26238.00001157 -.00002127 00000+0 00000+0 0 9995 2 40485 72.9050 347.9415 8279456 168.8836 220.3355 0.28349095 1382 ASTROSAT 1 40930U 15052A 26237.31333499 .00001551 00000+0 10662-3 0 9993 2 40930 5.9985 17.7422 0008529 300.5531 59.3755 14.82612569590101 DAMPE 1 41173U 15078A 26237.97776640 .00001052 00000+0 37739-4 0 9993 2 41173 97.4593 243.8055 0011629 179.8909 180.2337 15.30937657595227 PISAT 1 41784U 16059B 26237.95962029 .00000861 00000+0 15369-3 0 9998 2 41784 97.8228 235.4334 0028602 345.6754 14.3638 14.69096144529980 HXMT (HUIYAN) 1 42758U 17034A 26237.84783087 .00004286 00000+0 20986-3 0 9993 2 42758 43.0143 154.9953 0032450 228.9406 130.8637 15.18981149508259 FLYING LAPTOP 1 42831U 17042G 26237.96682126 .00002614 00000+0 20609-3 0 9994 2 42831 97.4959 30.9646 0016048 250.4585 109.4907 15.01510098496929 ZHANGHENG 1-01 (CSES-1) 1 43194U 18015C 26237.94672674 .00006159 00000+0 27958-3 0 9995 2 43194 97.6931 45.0202 0016305 29.5089 330.7063 15.21062559475249 SALSAT 1 46495U 20068K 26237.26336135 .00007111 00000+0 24232-3 0 9998 2 46495 97.8877 244.5903 0011122 65.4484 294.7913 15.30667520325922 IXPE 1 49954U 21121A 26238.00001157 .00010963 00000+0 58531-3 0 9996 2 49954 0.2285 148.8870 0007174 58.1307 70.5472 15.10815198 5851 SMILE 1 69123U 26109A 26232.83835195 .00000724 00000+0 00000+0 0 9997 2 69123 70.0346 206.3624 8229755 286.2672 0.0372 0.47505607 238